| time (UTC) | temp C | wind direction | speed KPH | gust KPH | rain 1hr cm | rain 24hr cm | rain mn cm | humidity % | barometer mb |
| 20260505062007 | 8 | 65 | 0.0 | 0.0 | 0.00 | 0.00 | 0.00 | 59 | 1016.0 |
| 20260505061506 | 8 | 65 | 0.0 | 0.0 | 0.00 | 0.00 | 0.00 | 57 | 1016.1 |
| 20260505061009 | 8 | 65 | 0.0 | 0.0 | 0.00 | 0.00 | 0.00 | 58 | 1016.0 |
| 20260505060505 | 9 | 65 | 0.0 | 0.0 | 0.00 | 0.00 | 0.00 | 59 | 1016.0 |
| 20260505060005 | 9 | 65 | 0.0 | 0.0 | 0.00 | 0.00 | 0.00 | 58 | 1016.1 |
| 20260505055506 | 9 | 65 | 0.0 | 0.0 | 0.00 | 0.00 | 0.00 | 57 | 1016.0 |
| 20260505055005 | 10 | 65 | 0.0 | 0.0 | 0.00 | 0.00 | 0.00 | 58 | 1015.9 |
| 20260505054505 | 10 | 65 | 0.0 | 0.0 | 0.00 | 0.00 | 0.00 | 58 | 1015.9 |
| 20260505054008 | 10 | 65 | 0.0 | 0.0 | 0.00 | 0.00 | 0.00 | 57 | 1015.9 |
| 20260505053504 | 10 | 65 | 0.0 | 0.0 | 0.00 | 0.00 | 0.00 | 56 | 1015.9 |
| 20260505053004 | 10 | 65 | 0.0 | 0.0 | 0.00 | 0.00 | 0.00 | 55 | 1015.8 |
| 20260505052504 | 10 | 65 | 0.0 | 0.0 | 0.00 | 0.00 | 0.00 | 56 | 1015.8 |
| 20260505052005 | 11 | 65 | 0.0 | 0.0 | 0.00 | 0.00 | 0.00 | 56 | 1015.8 |
| 20260505051504 | 11 | 65 | 0.0 | 0.0 | 0.00 | 0.00 | 0.00 | 55 | 1015.9 |
| 20260505051004 | 11 | 65 | 0.0 | 0.0 | 0.00 | 0.00 | 0.00 | 55 | 1015.8 |
| 20260505050506 | 11 | 65 | 0.0 | 0.0 | 0.00 | 0.00 | 0.00 | 53 | 1015.8 |
| 20260505041502 | 14 | 65 | 0.0 | 0.0 | 0.00 | 0.00 | 0.00 | 47 | 1015.5 |
| 20260505041002 | 14 | 65 | 0.0 | 0.0 | 0.00 | 0.00 | 0.00 | 47 | 1015.4 |
| 20260505040502 | 15 | 65 | 0.0 | 0.0 | 0.00 | 0.00 | 0.00 | 46 | 1015.4 |
| 20260505040002 | 15 | 65 | 0.0 | 0.0 | 0.00 | 0.00 | 0.00 | 45 | 1015.3 |
| 20260505035501 | 15 | 65 | 0.0 | 0.0 | 0.00 | 0.00 | 0.00 | 44 | 1015.3 |
| 20260505035001 | 15 | 65 | 0.0 | 0.0 | 0.00 | 0.00 | 0.00 | 43 | 1015.3 |
| 20260505034501 | 16 | 65 | 0.0 | 0.0 | 0.00 | 0.00 | 0.00 | 43 | 1015.3 |
| 20260505034001 | 16 | 65 | 0.0 | 0.0 | 0.00 | 0.00 | 0.00 | 41 | 1015.2 |
| 20260505033501 | 16 | 65 | 0.0 | 0.0 | 0.00 | 0.00 | 0.00 | 41 | 1015.2 |
| 20260505033001 | 16 | 65 | 0.0 | 0.0 | 0.00 | 0.00 | 0.00 | 39 | 1015.1 |
| 20260505032501 | 17 | 65 | 0.0 | 0.0 | 0.00 | 0.00 | 0.00 | 39 | 1015.1 |
| 20260505032003 | 17 | 65 | 0.0 | 1.6 | 0.00 | 0.00 | 0.00 | 38 | 1015.1 |
| 20260505031500 | 17 | 65 | 0.0 | 1.6 | 0.00 | 0.00 | 0.00 | 37 | 1015.1 |
| 20260505031105 | 17 | 65 | 0.0 | 0.0 | 0.00 | 0.00 | 0.00 | 37 | 1015.0 |
| 20260505030600 | 17 | 65 | 0.0 | 3.2 | 0.00 | 0.00 | 0.00 | 37 | 1014.9 |
| 20260505030100 | 18 | 65 | 0.0 | 6.4 | 0.00 | 0.00 | 0.00 | 38 | 1014.9 |
| 20260505025601 | 18 | 65 | 0.0 | 6.4 | 0.00 | 0.00 | 0.00 | 36 | 1014.9 |
| 20260505025102 | 18 | 11 | 0.0 | 0.0 | 0.00 | 0.00 | 0.00 | 36 | 1014.9 |
| 20260505024559 | 18 | 11 | 0.0 | 1.6 | 0.00 | 0.00 | 0.00 | 35 | 1014.9 |
| 20260505024059 | 18 | 11 | 0.0 | 1.6 | 0.00 | 0.00 | 0.00 | 34 | 1014.9 |
| 20260505023559 | 19 | 11 | 0.0 | 3.2 | 0.00 | 0.00 | 0.00 | 34 | 1014.9 |
| 20260505023104 | 19 | 11 | 0.0 | 4.8 | 0.00 | 0.00 | 0.00 | 35 | 1014.8 |
| 20260505022559 | 19 | 43 | 0.0 | 6.4 | 0.00 | 0.00 | 0.00 | 33 | 1014.8 |
| 20260505022059 | 19 | 21 | 0.0 | 4.8 | 0.00 | 0.00 | 0.00 | 32 | 1014.8 |
| 20260505021559 | 20 | 327 | 0.0 | 4.8 | 0.00 | 0.00 | 0.00 | 34 | 1014.8 |
| 20260505021057 | 20 | 358 | 0.0 | 3.2 | 0.00 | 0.00 | 0.00 | 32 | 1014.8 |
| 20260505020557 | 20 | 2 | 0.0 | 4.8 | 0.00 | 0.00 | 0.00 | 33 | 1014.8 |
| 20260505020058 | 20 | 2 | 0.0 | 6.4 | 0.00 | 0.00 | 0.00 | 32 | 1014.8 |
| 20260505015559 | 20 | 327 | 3.2 | 6.4 | 0.00 | 0.00 | 0.00 | 31 | 1014.8 |
| 20260505015056 | 20 | 329 | 3.2 | 6.4 | 0.00 | 0.00 | 0.00 | 30 | 1014.9 |
| 20260505014556 | 20 | 11 | 0.0 | 4.8 | 0.00 | 0.00 | 0.00 | 31 | 1014.9 |
| 20260505014101 | 20 | 8 | 0.0 | 6.4 | 0.00 | 0.00 | 0.00 | 31 | 1014.9 |
| 20260505013556 | 20 | 323 | 0.0 | 8.0 | 0.00 | 0.00 | 0.00 | 31 | 1014.9 |
| 20260505013100 | 21 | 308 | 0.0 | 8.0 | 0.00 | 0.00 | 0.00 | 31 | 1015.0 |
| 20260505012555 | 21 | 92 | 0.0 | 8.0 | 0.00 | 0.00 | 0.00 | 29 | 1015.0 |
| 20260505012056 | 21 | 341 | 0.0 | 9.7 | 0.00 | 0.00 | 0.00 | 29 | 1015.0 |
| 20260505011558 | 21 | 3 | 0.0 | 9.7 | 0.00 | 0.00 | 0.00 | 30 | 1015.1 |
| 20260505011056 | 21 | 329 | 0.0 | 9.7 | 0.00 | 0.00 | 0.00 | 29 | 1015.1 |
| 20260505010553 | 21 | 351 | 1.6 | 14.5 | 0.00 | 0.00 | 0.00 | 29 | 1015.1 |
| 20260505010053 | 21 | 279 | 4.8 | 16.1 | 0.00 | 0.00 | 0.00 | 29 | 1015.2 |
| 20260505005553 | 21 | 338 | 4.8 | 16.1 | 0.00 | 0.00 | 0.00 | 28 | 1015.1 |
| 20260505005053 | 21 | 351 | 0.0 | 8.0 | 0.00 | 0.00 | 0.00 | 27 | 1015.2 |
| 20260505004553 | 21 | 28 | 3.2 | 12.9 | 0.00 | 0.00 | 0.00 | 27 | 1015.3 |
| 20260505004052 | 21 | 284 | 3.2 | 8.0 | 0.00 | 0.00 | 0.00 | 28 | 1015.2 |
| 20260505003552 | 21 | 304 | 1.6 | 12.9 | 0.00 | 0.00 | 0.00 | 28 | 1015.2 |
| 20260505003055 | 21 | 358 | 4.8 | 16.1 | 0.00 | 0.00 | 0.00 | 27 | 1015.3 |
| 20260505002555 | 21 | 326 | 1.6 | 8.0 | 0.00 | 0.00 | 0.00 | 28 | 1015.3 |
| 20260505002054 | 21 | 351 | 0.0 | 9.7 | 0.00 | 0.00 | 0.00 | 28 | 1015.3 |
| 20260505001554 | 21 | 46 | 1.6 | 12.9 | 0.00 | 0.00 | 0.00 | 28 | 1015.3 |
| 20260505001050 | 21 | 333 | 4.8 | 14.5 | 0.00 | 0.00 | 0.00 | 28 | 1015.5 |
| 20260505000549 | 21 | 322 | 3.2 | 14.5 | 0.00 | 0.00 | 0.00 | 28 | 1015.4 |
| 20260505000055 | 21 | 358 | 1.6 | 6.4 | 0.00 | 0.00 | 0.00 | 29 | 1015.4 |
| 20260504235549 | 21 | 342 | 1.6 | 9.7 | 0.00 | 0.00 | 0.00 | 29 | 1015.5 |
| 20260504235050 | 21 | 294 | 0.0 | 9.7 | 0.00 | 0.00 | 0.00 | 30 | 1015.5 |
| 20260504234600 | 21 | 294 | 0.0 | 9.7 | 0.00 | 0.00 | 0.00 | 28 | 1015.5 |
| 20260504234047 | 21 | 323 | 4.8 | 12.9 | 0.00 | 0.00 | 0.00 | 28 | 1015.6 |
| 20260504233547 | 21 | 337 | 0.0 | 12.9 | 0.00 | 0.00 | 0.00 | 29 | 1015.6 |
| 20260504233047 | 21 | 239 | 0.0 | 12.9 | 0.00 | 0.00 | 0.00 | 29 | 1015.6 |
| 20260504232548 | 21 | 338 | 0.0 | 8.0 | 0.00 | 0.00 | 0.00 | 29 | 1015.6 |
| 20260504232046 | 21 | 308 | 0.0 | 14.5 | 0.00 | 0.00 | 0.00 | 30 | 1015.6 |
| 20260504231558 | 21 | 69 | 1.6 | 9.7 | 0.00 | 0.00 | 0.00 | 30 | 1015.7 |
| 20260504231046 | 21 | 319 | 3.2 | 9.7 | 0.00 | 0.00 | 0.00 | 29 | 1015.8 |
| 20260504230544 | 21 | 340 | 4.8 | 9.7 | 0.00 | 0.00 | 0.00 | 29 | 1015.7 |
| 20260504230045 | 21 | 334 | 1.6 | 11.3 | 0.00 | 0.00 | 0.00 | 30 | 1015.8 |
| 20260504225545 | 21 | 302 | 3.2 | 12.9 | 0.00 | 0.00 | 0.00 | 30 | 1015.8 |
| 20260504225044 | 21 | 284 | 3.2 | 11.3 | 0.00 | 0.00 | 0.00 | 30 | 1015.8 |
| 20260504224543 | 21 | 335 | 3.2 | 11.3 | 0.00 | 0.00 | 0.00 | 29 | 1015.9 |
| 20260504224043 | 21 | 315 | 3.2 | 9.7 | 0.00 | 0.00 | 0.00 | 29 | 1015.8 |
| 20260504223545 | 21 | 17 | 1.6 | 8.0 | 0.00 | 0.00 | 0.00 | 31 | 1015.8 |
| 20260504223044 | 21 | 15 | 1.6 | 11.3 | 0.00 | 0.00 | 0.00 | 30 | 1015.9 |
| 20260504222545 | 21 | 3 | 1.6 | 11.3 | 0.00 | 0.00 | 0.00 | 30 | 1016.0 |
| 20260504222044 | 21 | 303 | 3.2 | 12.9 | 0.00 | 0.00 | 0.00 | 30 | 1015.8 |
| 20260504221550 | 21 | 221 | 3.2 | 11.3 | 0.00 | 0.00 | 0.00 | 31 | 1016.0 |
| 20260504221043 | 21 | 315 | 1.6 | 11.3 | 0.00 | 0.00 | 0.00 | 31 | 1016.0 |
| 20260504220542 | 21 | 331 | 4.8 | 11.3 | 0.00 | 0.00 | 0.00 | 31 | 1016.0 |
| 20260504220042 | 21 | 324 | 0.0 | 8.0 | 0.00 | 0.00 | 0.00 | 31 | 1016.1 |
| 20260504215542 | 21 | 330 | 3.2 | 9.7 | 0.00 | 0.00 | 0.00 | 30 | 1016.1 |
| 20260504215041 | 21 | 39 | 3.2 | 9.7 | 0.00 | 0.00 | 0.00 | 30 | 1016.2 |
| 20260504214540 | 21 | 273 | 0.0 | 4.8 | 0.00 | 0.00 | 0.00 | 30 | 1016.2 |
| 20260504214039 | 21 | 319 | 0.0 | 9.7 | 0.00 | 0.00 | 0.00 | 31 | 1016.4 |
| 20260504213539 | 21 | 300 | 3.2 | 9.7 | 0.00 | 0.00 | 0.00 | 31 | 1016.4 |
| 20260504213038 | 21 | 348 | 1.6 | 8.0 | 0.00 | 0.00 | 0.00 | 31 | 1016.4 |
| 20260504212538 | 21 | 321 | 1.6 | 11.3 | 0.00 | 0.00 | 0.00 | 31 | 1016.5 |
| 20260504212038 | 21 | 323 | 1.6 | 14.5 | 0.00 | 0.00 | 0.00 | 31 | 1016.5 |
| 20260504211547 | 21 | 345 | 4.8 | 14.5 | 0.00 | 0.00 | 0.00 | 32 | 1016.5 |
| 20260504211037 | 20 | 335 | 0.0 | 8.0 | 0.00 | 0.00 | 0.00 | 34 | 1016.5 |
| 20260504210536 | 20 | 335 | 1.6 | 11.3 | 0.00 | 0.00 | 0.00 | 32 | 1016.7 |
| 20260504210051 | 20 | 284 | 3.2 | 11.3 | 0.00 | 0.00 | 0.00 | 32 | 1016.7 |
| 20260504205537 | 20 | 356 | 3.2 | 12.9 | 0.00 | 0.00 | 0.00 | 32 | 1016.7 |
| 20260504205039 | 20 | 360 | 0.0 | 12.9 | 0.00 | 0.00 | 0.00 | 34 | 1016.7 |
| 20260504204541 | 20 | 335 | 3.2 | 14.5 | 0.00 | 0.00 | 0.00 | 33 | 1016.8 |
| 20260504204035 | 20 | 355 | 8.0 | 14.5 | 0.00 | 0.00 | 0.00 | 33 | 1016.9 |
| 20260504203535 | 21 | 337 | 1.6 | 9.7 | 0.00 | 0.00 | 0.00 | 34 | 1016.9 |
| 20260504203035 | 20 | 41 | 1.6 | 9.7 | 0.00 | 0.00 | 0.00 | 36 | 1016.9 |
| 20260504202532 | 20 | 350 | 0.0 | 12.9 | 0.00 | 0.00 | 0.00 | 36 | 1016.9 |
| 20260504202032 | 20 | 71 | 1.6 | 12.9 | 0.00 | 0.00 | 0.00 | 36 | 1016.9 |
| 20260504201531 | 20 | 321 | 1.6 | 11.3 | 0.00 | 0.00 | 0.00 | 35 | 1017.0 |
| 20260504201030 | 20 | 313 | 3.2 | 11.3 | 0.00 | 0.00 | 0.00 | 36 | 1017.0 |
| 20260504200530 | 20 | 316 | 3.2 | 9.7 | 0.00 | 0.00 | 0.00 | 35 | 1017.1 |
| 20260504200028 | 19 | 271 | 3.2 | 17.7 | 0.00 | 0.00 | 0.00 | 36 | 1017.1 |
| 20260504195527 | 19 | 341 | 4.8 | 17.7 | 0.00 | 0.00 | 0.00 | 36 | 1017.1 |
| 20260504195027 | 19 | 284 | 4.8 | 14.5 | 0.00 | 0.00 | 0.00 | 36 | 1017.1 |
| 20260504194541 | 19 | 323 | 8.0 | 14.5 | 0.00 | 0.00 | 0.00 | 36 | 1017.2 |
| 20260504194027 | 19 | 339 | 3.2 | 11.3 | 0.00 | 0.00 | 0.00 | 36 | 1017.2 |
| 20260504193528 | 19 | 309 | 6.4 | 11.3 | 0.00 | 0.00 | 0.00 | 36 | 1017.2 |
| 20260504193029 | 19 | 332 | 1.6 | 11.3 | 0.00 | 0.00 | 0.00 | 38 | 1017.2 |
| 20260504192525 | 18 | 354 | 4.8 | 9.7 | 0.00 | 0.00 | 0.00 | 38 | 1017.3 |
| 20260504192027 | 18 | 300 | 3.2 | 9.7 | 0.00 | 0.00 | 0.00 | 38 | 1017.3 |
| 20260504191526 | 18 | 305 | 1.6 | 6.4 | 0.00 | 0.00 | 0.00 | 39 | 1017.4 |
| 20260504191021 | 18 | 360 | 1.6 | 14.5 | 0.00 | 0.00 | 0.00 | 40 | 1017.5 |
| 20260504190523 | 18 | 346 | 6.4 | 14.5 | 0.00 | 0.00 | 0.00 | 39 | 1017.6 |
| 20260504190020 | 17 | 284 | 3.2 | 11.3 | 0.00 | 0.00 | 0.00 | 40 | 1017.5 |
| 20260504185521 | 17 | 327 | 0.0 | 14.5 | 0.00 | 0.00 | 0.00 | 41 | 1017.6 |
| 20260504185016 | 17 | 324 | 3.2 | 14.5 | 0.00 | 0.00 | 0.00 | 42 | 1017.7 |
| 20260504184514 | 17 | 294 | 4.8 | 12.9 | 0.00 | 0.00 | 0.00 | 43 | 1017.7 |
| 20260504184014 | 16 | 289 | 3.2 | 17.7 | 0.00 | 0.00 | 0.00 | 43 | 1017.7 |
| 20260504183512 | 16 | 306 | 6.4 | 17.7 | 0.00 | 0.00 | 0.00 | 44 | 1017.8 |
| 20260504183010 | 16 | 252 | 1.6 | 11.3 | 0.00 | 0.00 | 0.00 | 45 | 1017.8 |
| 20260504182509 | 16 | 294 | 3.2 | 11.3 | 0.00 | 0.00 | 0.00 | 45 | 1017.8 |
| 20260504182008 | 16 | 323 | 1.6 | 11.3 | 0.00 | 0.00 | 0.00 | 45 | 1017.9 |
| 20260504181508 | 15 | 313 | 3.2 | 11.3 | 0.00 | 0.00 | 0.00 | 45 | 1017.9 |
| 20260504181008 | 15 | 275 | 0.0 | 8.0 | 0.00 | 0.00 | 0.00 | 47 | 1017.9 |
| 20260504180505 | 15 | 339 | 0.0 | 8.0 | 0.00 | 0.00 | 0.00 | 47 | 1017.9 |
| 20260504180005 | 15 | 326 | 3.2 | 8.0 | 0.00 | 0.00 | 0.00 | 48 | 1018.0 |
| 20260504175502 | 15 | 327 | 0.0 | 4.8 | 0.00 | 0.00 | 0.00 | 49 | 1018.0 |
| 20260504175003 | 15 | 294 | 0.0 | 8.0 | 0.00 | 0.00 | 0.00 | 49 | 1017.9 |
| 20260504174601 | 14 | 294 | 1.6 | 8.0 | 0.00 | 0.00 | 0.00 | 49 | 1017.9 |
| 20260504174059 | 14 | 311 | 1.6 | 9.7 | 0.00 | 0.00 | 0.00 | 50 | 1017.9 |
| 20260504173559 | 13 | 344 | 3.2 | 9.7 | 0.00 | 0.00 | 0.00 | 51 | 1017.9 |
| 20260504173114 | 13 | 323 | 0.0 | 8.0 | 0.00 | 0.00 | 0.00 | 51 | 1018.1 |
| 20260504172555 | 13 | 294 | 0.0 | 6.4 | 0.00 | 0.00 | 0.00 | 52 | 1018.1 |
| 20260504172054 | 13 | 294 | 0.0 | 6.4 | 0.00 | 0.00 | 0.00 | 54 | 1018.1 |
| 20260504171553 | 13 | 113 | 0.0 | 11.3 | 0.00 | 0.00 | 0.00 | 54 | 1018.1 |
| 20260504171053 | 12 | 9 | 0.0 | 11.3 | 0.00 | 0.00 | 0.00 | 53 | 1018.1 |
| 20260504170550 | 12 | 320 | 1.6 | 8.0 | 0.00 | 0.00 | 0.00 | 54 | 1018.1 |
| 20260504151033 | 5 | 324 | 0.0 | 4.8 | 0.00 | 0.00 | 0.00 | 88 | 1018.5 |
| 20260504150531 | 4 | 324 | 0.0 | 0.0 | 0.00 | 0.00 | 0.00 | 90 | 1018.6 |
| 20260504141031 | 2 | 324 | 0.0 | 0.0 | 0.00 | 0.00 | 0.00 | 88 | 1018.4 |
| 20260504140526 | 2 | 324 | 0.0 | 0.0 | 0.00 | 0.00 | 0.00 | 89 | 1018.3 |
| 20260504130521 | 2 | 324 | 0.0 | 0.0 | 0.00 | 0.00 | 0.00 | 86 | 1018.2 |
| 20260504110504 | 3 | 324 | 0.0 | 0.0 | 0.00 | 0.00 | 0.00 | 82 | 1017.5 |
| 20260504100553 | 5 | 324 | 0.0 | 0.0 | 0.00 | 0.00 | 0.00 | 79 | 1016.9 |
| 20260504081536 | 7 | 324 | 0.0 | 0.0 | 0.00 | 0.00 | 0.00 | 73 | 1016.2 |
| 20260504081035 | 7 | 324 | 0.0 | 0.0 | 0.00 | 0.00 | 0.00 | 72 | 1016.2 |
| 20260504080531 | 7 | 324 | 0.0 | 0.0 | 0.00 | 0.00 | 0.00 | 72 | 1016.2 |